Kayseri, Turkey

1:53 PM EEST on October 01, 2016 (GMT +0300)
Erkilet Air Base

Weather History for LTAU - July, 2013

Change the Weather History Date:

Tuesday, July 23, 2013

  Actual Average Record
Temperature  
Mean Temperature 64 °F -  
Max Temperature 81 °F 87 °F 99 °F (2012)
Min Temperature 48 °F 56 °F 48 °F (2013)
Growing Degree Days 14 (Base 50)    
Moisture  
Dew Point 47 °F    
Average Humidity 54    
Maximum Humidity 94    
Minimum Humidity 19    
Precipitation  
Precipitation 0.00 in - - ()
Sea Level Pressure  
Sea Level Pressure 29.91 in    
Wind  
Wind Speed 4 mph ()    
Max Wind Speed 17 mph    
Max Gust Speed 25 mph    
Visibility 6.9 miles    
Events      
Averages and records for this station are not official NWS values.
T = Trace of Precipitation, MM = Missing Value Source: Averaged Metar Reports

Daily Weather History Graph

Daily Weather History Graph

Search for Another Location

Airport or City:

Trip Planner

Search our weather history database for the weather conditions in past years. The results will help you decide how hot, cold, wet, or windy it might be!

Date:

Astronomy

Jul. 23, 2013 Rise Set
Actual Time 5:31 AM EEST 7:57 PM EEST
Civil Twilight 5:01 AM EEST 8:27 PM EEST
Nautical Twilight 4:23 AM EEST 9:04 PM EEST
Astronomical Twilight 3:41 AM EEST 9:46 PM EEST
Moon 8:12 PM EEST (7/23) 6:13 AM EEST (7/23)
Length of Visible Light 15h 26m
Length of Day
14h 25m
Waxing Gibbous, 99% of the Moon is Illuminated
Jul 23
Waxing Gibbous
Jul 29
Last Quarter
Aug 7
New
Aug 14
First Quarter
Aug 21
Full

Hourly Weather History & Observations

Time (EEST) Temp. Dew Point Humidity Pressure Visibility Wind Dir Wind Speed Gust Speed Precip Events Conditions
12:20 AM 59.0 °F 50.0 °F 72% 29.89 in - East 3.5 mph - N/A   Clear
12:50 AM 59.0 °F 50.0 °F 72% 29.89 in - East 3.5 mph - N/A   Clear
1:20 AM 57.2 °F 50.0 °F 77% 29.89 in - NE 2.3 mph - N/A   Clear
1:50 AM 55.4 °F 48.2 °F 77% 29.89 in - NNE 3.5 mph - N/A   Clear
2:20 AM 55.4 °F 50.0 °F 82% 29.89 in - North 4.6 mph - N/A   Clear
2:50 AM 53.6 °F 48.2 °F 82% 29.89 in - NNE 2.3 mph - N/A   Clear
3:00 AM 53 °F 48 °F 77%  in 12 mi NNE 2.3 mph - -  
3:20 AM 55.4 °F 50.0 °F 82% 29.89 in - North 3.5 mph - N/A   Clear
3:50 AM 53.6 °F 48.2 °F 82% 29.89 in - North 2.3 mph - N/A   Clear
4:20 AM 51.8 °F 48.2 °F 88% 29.89 in - Variable 1.2 mph - N/A   Clear
4:50 AM 51.8 °F 48.2 °F 88% 29.89 in - Variable 1.2 mph - N/A   Clear
5:20 AM 50.0 °F 46.4 °F 87% 29.89 in 6.2 mi Calm Calm - N/A   Partly Cloudy
5:50 AM 50.0 °F 48.2 °F 94% 29.92 in 6.2 mi Calm Calm - N/A   Partly Cloudy
6:20 AM 50.0 °F 46.4 °F 87% 29.92 in 6.2 mi Calm Calm - N/A   Scattered Clouds
6:50 AM 53.6 °F 50.0 °F 88% 29.92 in 6.2 mi Calm Calm - N/A   Scattered Clouds
7:20 AM 57.2 °F 51.8 °F 82% 29.92 in 6.2 mi Calm Calm - N/A   Scattered Clouds
7:50 AM 64.4 °F 50.0 °F 59% 29.92 in - Calm Calm - N/A   Clear
8:20 AM 64.4 °F 50.0 °F 59% 29.92 in 6.2 mi Calm Calm - N/A   Scattered Clouds
8:50 AM 66.2 °F 48.2 °F 52% 29.92 in 6.2 mi Variable 1.2 mph - N/A   Scattered Clouds
9:00 AM 66 °F 48 °F 42%  in 12 mi East 1.2 mph - -   Partly Cloudy
9:20 AM 66.2 °F 50.0 °F 56% 29.92 in 6.2 mi NE 3.5 mph - N/A   Scattered Clouds
9:50 AM 68.0 °F 50.0 °F 52% 29.92 in 6.2 mi Variable 3.5 mph - N/A   Scattered Clouds
10:20 AM 68.0 °F 48.2 °F 49% 29.92 in 6.2 mi Variable 2.3 mph - N/A   Scattered Clouds
10:50 AM 69.8 °F 48.2 °F 46% 29.92 in 6.2 mi Variable 3.5 mph - N/A   Scattered Clouds
11:20 AM 71.6 °F 46.4 °F 41% 29.92 in 6.2 mi Variable 2.3 mph - N/A   Scattered Clouds
11:50 AM 73.4 °F 46.4 °F 38% 29.92 in 6.2 mi ENE 6.9 mph - N/A   Scattered Clouds
12:20 PM 73.4 °F 46.4 °F 38% 29.89 in 6.2 mi NE 4.6 mph - N/A   Scattered Clouds
12:50 PM 75.2 °F 46.4 °F 36% 29.89 in 6.2 mi NE 3.5 mph - N/A   Scattered Clouds
1:20 PM 75.2 °F 44.6 °F 34% 29.89 in 6.2 mi Variable 4.6 mph - N/A   Scattered Clouds
1:50 PM 78.8 °F 46.4 °F 32% 29.89 in 6.2 mi Variable 3.5 mph - N/A   Scattered Clouds
2:20 PM 78.8 °F 46.4 °F 32% 29.89 in 6.2 mi Variable 5.8 mph - N/A   Scattered Clouds
2:50 PM 77.0 °F 44.6 °F 32% 29.86 in 6.2 mi SSE 4.6 mph - N/A   Partly Cloudy
3:00 PM 78 °F 43 °F 19%  in 12 mi SSE 4.6 mph - -   Scattered Clouds
3:20 PM 80.6 °F 42.8 °F 26% 29.86 in 6.2 mi SE 3.5 mph - N/A   Partly Cloudy
3:50 PM 80.6 °F 42.8 °F 26% 29.86 in 6.2 mi Variable 1.2 mph - N/A   Partly Cloudy
4:20 PM 80.6 °F 44.6 °F 28% 29.86 in 6.2 mi SE 3.5 mph - N/A   Scattered Clouds
4:50 PM 80.6 °F 44.6 °F 28% 29.86 in 6.2 mi North 11.5 mph - N/A   Scattered Clouds
5:20 PM 78.8 °F 46.4 °F 32% 29.86 in 6.2 mi North 13.8 mph - N/A   Partly Cloudy
5:50 PM 78.8 °F 46.4 °F 32% 29.86 in 6.2 mi North 16.1 mph - N/A   Partly Cloudy
6:20 PM 77.0 °F 46.4 °F 34% 29.86 in 6.2 mi North 16.1 mph - N/A   Partly Cloudy
6:50 PM 75.2 °F 46.4 °F 36% 29.89 in 6.2 mi NNW 17.3 mph - N/A   Partly Cloudy
7:20 PM 73.4 °F 46.4 °F 38% 29.89 in 6.2 mi North 12.7 mph 25.3 mph N/A   Partly Cloudy
7:50 PM 71.6 °F 46.4 °F 41% 29.92 in 6.2 mi North 10.4 mph - N/A   Partly Cloudy
8:20 PM 68.0 °F 48.2 °F 49% 29.92 in 6.2 mi NNE 6.9 mph - N/A   Partly Cloudy
8:50 PM 68.0 °F 48.2 °F 49% 29.95 in - NNE 8.1 mph - N/A   Clear
9:00 PM 68 °F 47 °F 36%  in 12 mi NNE 8.1 mph - -  
9:20 PM 64.4 °F 46.4 °F 52% 29.98 in - ENE 5.8 mph - N/A   Clear
9:50 PM 64.4 °F 46.4 °F 52% 29.98 in - NE 4.6 mph - N/A   Clear
10:20 PM 62.6 °F 46.4 °F 55% 29.98 in - ENE 10.4 mph - N/A   Clear
10:50 PM 62.6 °F 46.4 °F 55% 29.98 in - East 8.1 mph - N/A   Clear
11:20 PM 60.8 °F 46.4 °F 59% 29.98 in - ENE 5.8 mph - N/A   Clear
11:50 PM 59.0 °F 46.4 °F 63% 29.98 in - ENE 3.5 mph - N/A   Clear